Temp
-14 -14 -14 -15 -15 -15 -15 -15 -15 -15 -15 -15 -15 -15 -15 -14 -14 -14 -14 -13 -13 -13 -12 -12 -12 -13 -14 -13 -12 -12 -11 -10 -10 -10 -9 -10 -10 -10 -10 -10 -10 -10 -10 -10 -10 -10 -9 -9 -9 -9 -9 -9 -10 -9
-14 -14 -15 -15 -15 -15 -15 -15 -15 -15 -15 -15 -15 -15 -15 -15 -15 -14 -14 -14 -14 -14 -13 -13 -13 -14 -14 -14 -13 -12 -12 -11 -11 -10 -10 -10 -10 -10 -10 -10 -10 -11 -10 -10 -10 -10 -10 -10 -9 -10 -9 -9 -10 -10
-14 -15 -15 -15 -15 -15 -16 -16 -15 -15 -15 -15 -15 -15 -15 -15 -15 -15 -15 -14 -14 -14 -13 -14 -14 -14 -14 -15 -14 -14 -13 -12 -11 -10 -10 -11 -11 -11 -10 -11 -10 -10 -10 -10 -10 -9 -9 -9 -9 -10 -10 -10 -10 -9
-15 -15 -15 -15 -15 -16 -16 -16 -16 -16 -16 -16 -16 -16 -16 -16 -16 -15 -15 -15 -15 -15 -14 -14 -13 -14 -13 -14 -15 -14 -13 -13 -12 -12 -12 -11 -10 -11 -11 -10 -10 -10 -9 -9 -9 -9 -9 -9 -9 -10 -9 -9 -9 -10
-15 -15 -15 -15 -16 -16 -16 -16 -16 -17 -17 -17 -17 -17 -17 -17 -17 -16 -16 -16 -16 -15 -15 -14 -14 -14 -14 -14 -15 -15 -14 -13 -13 -13 -12 -12 -11 -11 -11 -11 -11 -10 -10 -9 -10 -9 -9 -10 -9 -10 -10 -10 -10 -10
-14 -15 -15 -15 -16 -16 -17 -17 -17 -17 -17 -17 -17 -17 -17 -18 -17 -17 -17 -16 -16 -16 -15 -15 -15 -15 -14 -14 -14 -15 -15 -14 -13 -13 -13 -12 -11 -11 -11 -11 -10 -10 -9 -10 -10 -10 -10 -11 -11 -10 -11 -10 -10 -10
-14 -15 -15 -15 -16 -16 -16 -17 -17 -17 -17 -17 -18 -18 -18 -18 -18 -17 -17 -17 -17 -16 -16 -16 -15 -15 -15 -15 -15 -15 -14 -14 -14 -14 -13 -13 -12 -12 -12 -11 -11 -11 -11 -11 -11 -10 -11 -11 -10 -10 -10 -10 -10 -10
-14 -14 -15 -15 -16 -16 -17 -17 -17 -17 -18 -18 -18 -18 -18 -18 -19 -19 -19 -18 -18 -17 -17 -16 -16 -15 -15 -15 -15 -15 -15 -14 -14 -14 -14 -13 -13 -13 -12 -12 -11 -11 -11 -11 -11 -11 -11 -10 -10 -10 -10 -9 -9 -9
-14 -14 -15 -15 -16 -16 -17 -17 -17 -18 -17 -17 -18 -18 -18 -19 -19 -20 -20 -19 -19 -18 -18 -17 -17 -16 -16 -15 -15 -15 -15 -15 -14 -14 -14 -14 -13 -13 -13 -13 -12 -12 -11 -11 -11 -11 -11 -11 -10 -10 -10 -9 -9 -9
-13 -14 -14 -15 -15 -16 -16 -17 -17 -17 -17 -17 -17 -18 -19 -19 -19 -20 -20 -20 -19 -19 -18 -17 -17 -17 -16 -15 -15 -15 -15 -15 -15 -15 -14 -14 -14 -13 -13 -13 -13 -13 -12 -12 -12 -12 -12 -11 -11 -10 -10 -9 -9 -9
-13 -13 -14 -14 -15 -15 -16 -17 -17 -17 -17 -17 -17 -18 -19 -18 -19 -19 -19 -19 -19 -19 -18 -17 -17 -17 -17 -16 -16 -15 -15 -15 -15 -15 -14 -14 -13 -13 -13 -13 -13 -13 -13 -12 -12 -11 -11 -11 -11 -10 -10 -10 -10 -9
-14 -14 -14 -14 -15 -15 -16 -16 -17 -17 -17 -18 -18 -18 -18 -18 -18 -18 -18 -18 -18 -18 -18 -18 -17 -17 -17 -17 -16 -15 -15 -15 -14 -14 -14 -14 -14 -14 -14 -13 -13 -13 -13 -12 -12 -12 -12 -11 -11 -11 -11 -10 -10 -10
-13 -13 -14 -14 -14 -15 -15 -16 -16 -17 -17 -18 -17 -17 -18 -18 -18 -18 -17 -18 -18 -17 -17 -17 -17 -17 -17 -17 -16 -16 -15 -15 -14 -15 -15 -15 -14 -14 -14 -14 -13 -14 -14 -13 -13 -12 -12 -12 -11 -11 -11 -11 -10 -10
-13 -13 -13 -14 -14 -15 -14 -15 -16 -16 -16 -17 -17 -18 -18 -18 -18 -18 -17 -17 -17 -18 -17 -17 -17 -17 -16 -17 -16 -17 -16 -16 -15 -15 -15 -15 -14 -14 -14 -14 -14 -14 -14 -14 -13 -12 -12 -12 -12 -11 -11 -11 -10 -10
-14 -14 -13 -13 -14 -14 -15 -15 -16 -15 -16 -16 -17 -17 -17 -17 -17 -17 -17 -17 -17 -18 -18 -17 -17 -17 -17 -17 -17 -17 -16 -15 -15 -15 -15 -14 -14 -14 -14 -14 -14 -14 -14 -14 -13 -13 -13 -12 -12 -11 -11 -11 -11 -11
-14 -14 -14 -13 -14 -14 -15 -16 -15 -15 -15 -16 -16 -16 -16 -16 -17 -17 -17 -17 -16 -16 -17 -17 -17 -17 -17 -17 -17 -16 -16 -16 -15 -15 -15 -15 -15 -14 -14 -14 -14 -14 -14 -14 -13 -13 -13 -13 -13 -13 -13 -12 -12 -11
-14 -14 -14 -13 -13 -14 -15 -15 -16 -15 -15 -15 -16 -16 -16 -16 -16 -17 -16 -16 -17 -17 -17 -17 -17 -17 -17 -17 -16 -16 -16 -16 -16 -16 -15 -15 -15 -15 -15 -15 -15 -14 -14 -14 -14 -14 -14 -14 -13 -13 -13 -12 -11 -11
-14 -14 -14 -14 -14 -14 -15 -15 -15 -15 -15 -15 -16 -16 -16 -16 -16 -16 -16 -16 -16 -16 -16 -16 -16 -16 -16 -16 -16 -16 -16 -15 -15 -15 -15 -15 -15 -15 -15 -15 -15 -15 -14 -14 -14 -14 -14 -14 -14 -14 -13 -13 -13 -13
-14 -14 -14 -14 -14 -14 -14 -14 -15 -15 -16 -15 -16 -16 -16 -16 -16 -16 -16 -16 -16 -16 -16 -16 -16 -16 -16 -16 -16 -16 -16 -16 -16 -16 -16 -16 -15 -15 -15 -15 -15 -15 -15 -14 -13 -14 -14 -14 -14 -14 -14 -14 -14 -13
-14 -14 -14 -15 -15 -15 -15 -15 -15 -15 -15 -15 -16 -16 -16 -16 -16 -16 -16 -16 -16 -16 -16 -16 -16 -15 -15 -15 -15 -15 -15 -16 -16 -15 -15 -15 -15 -15 -15 -15 -15 -14 -14 -14 -14 -14 -14 -14 -14 -14 -14 -14 -15 -15
-14 -14 -14 -14 -15 -15 -15 -15 -16 -16 -16 -16 -16 -16 -16 -16 -16 -16 -16 -16 -16 -16 -16 -15 -15 -16 -16 -16 -16 -16 -15 -15 -15 -15 -15 -15 -15 -15 -15 -15 -15 -14 -14 -14 -14 -14 -14 -15 -15 -15 -15 -15 -15 -15
-14 -14 -14 -15 -15 -15 -15 -15 -15 -15 -16 -16 -16 -16 -16 -16 -16 -16 -16 -16 -16 -16 -16 -16 -16 -16 -16 -16 -15 -15 -15 -15 -15 -15 -15 -15 -15 -15 -15 -14 -14 -15 -15 -15 -15 -15 -15 -15 -15 -15 -15 -15 -15 -15
-14 -14 -14 -15 -15 -15 -15 -15 -15 -15 -16 -16 -15 -16 -16 -16 -16 -16 -16 -16 -16 -16 -16 -16 -16 -16 -16 -16 -15 -15 -15 -15 -15 -15 -15 -15 -15 -15 -15 -15 -15 -15 -15 -15 -15 -15 -15 -16 -16 -15 -15 -15 -15 -15
-14 -14 -14 -14 -15 -15 -15 -15 -15 -14 -15 -15 -15 -15 -15 -16 -16 -16 -16 -15 -15 -16 -16 -16 -16 -16 -16 -16 -15 -15 -15 -15 -15 -15 -15 -15 -15 -14 -14 -15 -15 -15 -15 -15 -15 -15 -15 -16 -16 -16 -16 -16 -16 -16
-14 -14 -14 -14 -14 -14 -15 -15 -14 -15 -15 -15 -15 -15 -15 -15 -15 -15 -15 -16 -16 -16 -16 -15 -15 -15 -15 -15 -15 -15 -15 -14 -14 -14 -14 -14 -14 -14 -14 -14 -15 -15 -15 -15 -15 -15 -15 -16 -16 -16 -16 -16 -16 -16
-13 -14 -14 -14 -14 -14 -15 -15 -14 -15 -15 -15 -15 -15 -15 -15 -15 -15 -15 -15 -15 -15 -15 -15 -15 -15 -14 -14 -14 -14 -14 -14 -14 -14 -14 -14 -14 -15 -15 -15 -15 -15 -15 -15 -15 -15 -16 -16 -16 -16 -16 -16 -17 -17
-13 -14 -14 -14 -14 -14 -14 -14 -14 -15 -14 -14 -15 -15 -15 -15 -15 -15 -15 -15 -15 -15 -14 -14 -14 -14 -14 -14 -14 -14 -14 -14 -14 -14 -14 -14 -14 -14 -15 -15 -15 -15 -15 -15 -15 -15 -15 -16 -16 -16 -16 -16 -16 -17
-13 -13 -14 -14 -14 -14 -14 -14 -14 -14 -14 -14 -14 -14 -14 -14 -14 -14 -14 -14 -14 -14 -14 -14 -14 -14 -14 -14 -14 -14 -14 -14 -14 -14 -14 -14 -14 -14 -14 -15 -15 -15 -15 -15 -15 -15 -16 -16 -16 -16 -16 -17 -17 -17
-14 -13 -14 -14 -14 -14 -14 -14 -14 -14 -14 -14 -14 -14 -14 -14 -14 -14 -14 -14 -14 -14 -14 -14 -14 -14 -14 -14 -14 -14 -14 -14 -14 -14 -14 -15 -15 -15 -15 -15 -15 -15 -15 -15 -15 -16 -16 -16 -16 -16 -17 -17 -17 -17
-14 -14 -14 -14 -14 -14 -14 -14 -14 -14 -14 -14 -14 -14 -14 -14 -13 -14 -14 -13 -13 -14 -14 -14 -14 -14 -14 -14 -14 -14 -14 -14 -14 -14 -15 -15 -15 -15 -15 -15 -15 -15 -15 -15 -16 -16 -16 -16 -16 -16 -16 -17 -17 -18
-14 -14 -14 -14 -14 -14 -14 -14 -14 -14 -14 -14 -14 -14 -14 -14 -14 -14 -14 -14 -14 -14 -14 -13 -13 -13 -13 -14 -14 -14 -14 -15 -15 -15 -15 -15 -15 -15 -15 -15 -15 -15 -16 -16 -16 -16 -16 -16 -17 -17 -17 -17 -18 -18
-14 -14 -15 -14 -14 -14 -14 -14 -14 -14 -14 -13 -13 -14 -14 -14 -14 -14 -14 -14 -14 -14 -14 -14 -14 -14 -14 -14 -14 -14 -14 -15 -15 -15 -15 -15 -15 -15 -15 -15 -15 -16 -16 -16 -16 -16 -16 -17 -17 -17 -17 -17 -18 -18
-14 -15 -14 -14 -14 -14 -14 -14 -14 -14 -14 -14 -14 -14 -14 -14 -14 -14 -14 -14 -14 -14 -14 -14 -14 -14 -14 -14 -14 -14 -14 -15 -15 -15 -15 -15 -15 -15 -15 -15 -15 -16 -16 -16 -16 -16 -16 -16 -17 -17 -17 -17 -17 -18
Height
5715 5709 5704 5699 5696 5693 5691 5690 5688 5687 5686 5687 5688 5690 5692 5694 5697 5701 5705 5710 5715 5721 5726 5733 5740 5746 5753 5760 5767 5773 5778 5784 5789 5798 5805 5811 5819 5825 5829 5833 5836 5841 5845 5848 5853 5855 5859 5863 5865 5868 5872 5878 5876 5877
5714 5708 5703 5698 5694 5690 5688 5686 5684 5683 5682 5681 5682 5683 5685 5687 5690 5694 5698 5703 5708 5713 5718 5726 5732 5737 5744 5753 5761 5768 5771 5777 5783 5791 5799 5805 5811 5816 5821 5826 5831 5833 5837 5843 5846 5848 5853 5856 5860 5863 5866 5870 5870 5873
5713 5707 5701 5695 5691 5687 5684 5681 5679 5677 5676 5676 5675 5676 5677 5680 5682 5686 5691 5695 5701 5707 5711 5718 5722 5729 5736 5745 5753 5761 5766 5771 5779 5787 5794 5798 5803 5809 5813 5819 5823 5827 5833 5835 5840 5841 5846 5850 5853 5857 5860 5863 5866 5868
5710 5704 5699 5693 5688 5683 5680 5677 5674 5672 5670 5669 5668 5669 5670 5672 5675 5679 5683 5688 5693 5698 5702 5710 5716 5723 5729 5737 5745 5751 5758 5765 5772 5778 5786 5792 5798 5802 5806 5811 5816 5822 5827 5830 5833 5837 5841 5846 5850 5852 5856 5860 5861 5862
5708 5702 5697 5691 5686 5681 5677 5673 5669 5666 5664 5663 5663 5664 5665 5666 5669 5671 5674 5678 5683 5690 5695 5702 5709 5716 5724 5732 5738 5744 5753 5757 5764 5772 5780 5787 5791 5798 5801 5804 5809 5814 5819 5824 5827 5833 5837 5842 5846 5850 5853 5854 5854 5854
5708 5702 5696 5691 5684 5679 5674 5669 5665 5663 5661 5661 5661 5661 5661 5661 5662 5663 5667 5671 5675 5681 5687 5694 5701 5708 5715 5725 5731 5738 5745 5753 5759 5766 5772 5776 5783 5791 5796 5799 5803 5807 5814 5820 5826 5829 5832 5833 5837 5839 5839 5840 5842 5843
5710 5704 5697 5691 5685 5678 5673 5669 5665 5663 5661 5660 5659 5659 5658 5657 5657 5658 5661 5664 5668 5673 5679 5686 5693 5702 5709 5718 5725 5731 5741 5747 5754 5761 5766 5772 5778 5784 5791 5798 5803 5806 5809 5812 5817 5821 5823 5826 5828 5830 5834 5834 5834 5834
5713 5706 5700 5693 5686 5680 5674 5670 5667 5664 5661 5660 5658 5658 5657 5655 5655 5656 5657 5659 5663 5668 5673 5679 5687 5695 5702 5710 5719 5725 5736 5743 5746 5755 5762 5766 5771 5779 5785 5791 5796 5799 5802 5806 5810 5813 5816 5819 5820 5820 5821 5822 5822 5822
5717 5710 5704 5697 5690 5683 5677 5673 5669 5666 5663 5662 5660 5658 5657 5654 5653 5654 5655 5657 5660 5666 5669 5675 5681 5689 5695 5703 5711 5719 5728 5736 5743 5749 5755 5763 5766 5774 5781 5785 5790 5794 5797 5800 5803 5806 5807 5808 5808 5809 5810 5810 5811 5811
5722 5715 5709 5702 5696 5688 5682 5676 5673 5671 5669 5667 5665 5663 5659 5657 5655 5653 5654 5657 5661 5663 5666 5672 5677 5684 5691 5698 5706 5715 5724 5730 5739 5745 5750 5757 5763 5767 5774 5778 5783 5787 5791 5794 5796 5798 5798 5800 5800 5800 5800 5799 5799 5799
5729 5721 5715 5708 5702 5695 5688 5682 5677 5674 5672 5671 5669 5666 5664 5662 5660 5660 5660 5662 5664 5663 5666 5671 5677 5681 5688 5694 5701 5710 5718 5725 5733 5741 5747 5752 5758 5763 5768 5772 5776 5780 5784 5786 5788 5789 5789 5791 5791 5790 5789 5789 5788 5788
5735 5728 5721 5715 5708 5701 5695 5689 5683 5679 5675 5673 5671 5669 5667 5665 5665 5664 5666 5669 5670 5672 5673 5675 5674 5683 5688 5693 5699 5707 5715 5722 5727 5735 5743 5748 5754 5759 5763 5767 5769 5772 5774 5777 5780 5780 5781 5781 5781 5781 5780 5779 5777 5775
5741 5735 5727 5721 5714 5707 5700 5695 5689 5685 5681 5677 5674 5671 5670 5670 5669 5668 5668 5671 5672 5675 5680 5683 5686 5688 5689 5694 5700 5706 5712 5719 5726 5733 5738 5745 5750 5754 5758 5761 5762 5764 5766 5769 5772 5772 5772 5773 5773 5772 5770 5768 5766 5764
5748 5742 5735 5728 5721 5715 5708 5701 5696 5691 5688 5684 5680 5676 5673 5671 5672 5672 5673 5676 5676 5677 5682 5685 5688 5684 5691 5696 5702 5707 5714 5720 5725 5731 5736 5742 5746 5750 5752 5754 5756 5757 5758 5761 5763 5764 5763 5762 5761 5760 5759 5756 5753 5750
5753 5747 5742 5735 5729 5722 5716 5710 5703 5698 5696 5692 5688 5684 5681 5678 5676 5675 5675 5676 5679 5681 5684 5687 5691 5694 5698 5701 5706 5710 5714 5718 5723 5729 5733 5737 5741 5744 5746 5747 5748 5750 5753 5754 5756 5756 5755 5753 5751 5748 5746 5743 5740 5737
5759 5753 5749 5741 5735 5729 5723 5717 5711 5708 5704 5700 5696 5693 5691 5689 5687 5686 5683 5682 5684 5687 5691 5694 5697 5700 5703 5705 5709 5711 5715 5719 5723 5726 5730 5734 5736 5738 5740 5742 5745 5747 5748 5748 5748 5747 5746 5744 5742 5739 5735 5732 5729 5726
5763 5759 5754 5747 5740 5734 5729 5726 5725 5720 5713 5707 5704 5702 5701 5699 5698 5698 5697 5696 5696 5696 5698 5700 5703 5705 5707 5708 5711 5715 5719 5721 5724 5726 5729 5732 5735 5737 5738 5740 5742 5742 5743 5742 5742 5740 5739 5736 5734 5730 5724 5720 5717 5714
5766 5763 5758 5752 5748 5742 5738 5736 5731 5726 5721 5718 5716 5712 5710 5708 5706 5706 5705 5705 5705 5704 5705 5707 5708 5710 5711 5713 5716 5719 5721 5723 5725 5728 5730 5732 5734 5735 5736 5736 5737 5737 5737 5736 5734 5731 5729 5726 5722 5719 5714 5709 5705 5701
5769 5766 5762 5758 5754 5749 5744 5741 5735 5732 5728 5725 5723 5720 5718 5717 5716 5714 5712 5711 5710 5710 5711 5712 5713 5715 5717 5719 5720 5722 5724 5725 5727 5728 5729 5731 5732 5733 5734 5733 5733 5733 5729 5726 5724 5722 5719 5716 5713 5709 5705 5701 5695 5690
5769 5767 5764 5761 5758 5753 5749 5745 5741 5737 5733 5731 5729 5727 5725 5723 5722 5720 5719 5718 5717 5717 5717 5717 5718 5720 5721 5721 5723 5724 5725 5726 5727 5727 5728 5729 5729 5728 5729 5729 5726 5724 5722 5720 5717 5714 5710 5708 5704 5700 5695 5691 5687 5681
5769 5766 5764 5762 5759 5756 5752 5748 5745 5741 5737 5735 5733 5731 5730 5728 5727 5726 5724 5723 5723 5722 5722 5722 5722 5722 5723 5724 5724 5725 5725 5725 5726 5726 5726 5725 5725 5724 5724 5722 5721 5718 5716 5713 5710 5707 5703 5699 5696 5692 5687 5683 5679 5674
5768 5766 5763 5761 5759 5756 5753 5749 5746 5743 5741 5737 5735 5733 5732 5731 5730 5729 5728 5727 5726 5726 5725 5725 5725 5725 5725 5725 5725 5725 5725 5724 5724 5724 5724 5723 5722 5721 5720 5717 5715 5713 5711 5708 5705 5702 5698 5694 5690 5686 5681 5677 5672 5668
5766 5765 5763 5760 5758 5756 5754 5750 5747 5744 5741 5739 5736 5735 5733 5732 5730 5730 5728 5727 5726 5726 5726 5726 5726 5726 5726 5725 5724 5724 5723 5723 5722 5722 5722 5721 5720 5718 5716 5715 5713 5710 5708 5705 5702 5699 5695 5691 5686 5681 5676 5671 5666 5662
5765 5764 5762 5760 5758 5756 5754 5751 5747 5744 5744 5742 5738 5736 5734 5732 5732 5730 5729 5727 5726 5726 5726 5727 5727 5727 5726 5726 5725 5724 5724 5723 5722 5722 5721 5721 5719 5717 5715 5712 5710 5707 5704 5702 5698 5695 5690 5686 5682 5677 5672 5667 5662 5656
5764 5763 5762 5760 5758 5756 5754 5752 5749 5747 5744 5742 5739 5737 5735 5734 5732 5731 5730 5729 5729 5728 5728 5728 5728 5728 5728 5727 5726 5726 5725 5724 5723 5721 5720 5719 5718 5716 5713 5711 5708 5705 5701 5698 5695 5691 5687 5683 5679 5674 5668 5662 5657 5651
5760 5759 5759 5758 5757 5755 5754 5751 5749 5747 5745 5743 5741 5739 5737 5735 5734 5732 5732 5731 5731 5730 5730 5730 5730 5730 5730 5729 5728 5727 5726 5725 5724 5723 5721 5720 5717 5715 5712 5710 5707 5704 5700 5697 5693 5689 5684 5680 5675 5670 5665 5660 5654 5647
5758 5757 5755 5755 5755 5754 5753 5750 5750 5748 5746 5744 5742 5740 5739 5738 5737 5736 5735 5734 5734 5734 5733 5733 5732 5732 5732 5731 5730 5729 5728 5727 5725 5724 5722 5720 5718 5715 5713 5710 5706 5703 5699 5696 5691 5687 5682 5677 5672 5666 5661 5656 5650 5643
5756 5754 5753 5752 5752 5752 5751 5750 5749 5748 5747 5745 5744 5742 5741 5741 5740 5739 5738 5738 5737 5737 5736 5736 5735 5734 5734 5733 5732 5731 5729 5728 5726 5724 5722 5720 5717 5714 5712 5708 5705 5701 5697 5693 5688 5684 5680 5675 5670 5664 5658 5651 5645 5638
5751 5750 5751 5750 5750 5750 5749 5749 5748 5747 5747 5745 5744 5743 5743 5742 5741 5741 5740 5740 5740 5739 5738 5738 5737 5736 5736 5734 5732 5732 5730 5728 5725 5723 5721 5718 5715 5713 5709 5706 5702 5698 5694 5690 5686 5681 5676 5671 5667 5662 5656 5650 5644 5637
5747 5746 5746 5746 5747 5747 5747 5747 5747 5746 5746 5745 5744 5743 5743 5743 5742 5742 5741 5741 5740 5740 5740 5740 5739 5738 5736 5735 5733 5731 5729 5727 5725 5723 5720 5717 5714 5711 5708 5704 5699 5695 5691 5687 5683 5678 5673 5668 5663 5657 5651 5645 5639 5633
5744 5743 5743 5744 5744 5745 5745 5745 5745 5745 5744 5744 5743 5743 5742 5742 5741 5741 5741 5741 5741 5740 5739 5738 5737 5736 5735 5733 5731 5730 5728 5726 5724 5721 5719 5716 5713 5710 5706 5701 5697 5692 5688 5684 5680 5676 5671 5665 5660 5654 5648 5642 5636 5630
5741 5741 5741 5740 5741 5742 5743 5743 5743 5743 5743 5743 5742 5742 5741 5740 5740 5740 5740 5739 5739 5739 5738 5737 5735 5734 5733 5731 5730 5728 5727 5725 5723 5720 5718 5715 5711 5708 5704 5699 5694 5690 5685 5681 5677 5672 5667 5662 5657 5651 5645 5639 5633 5627
5739 5738 5737 5738 5739 5740 5740 5741 5741 5741 5741 5741 5740 5740 5740 5739 5738 5738 5738 5737 5737 5736 5735 5734 5733 5732 5730 5730 5728 5726 5724 5722 5720 5717 5714 5711 5708 5704 5700 5696 5691 5687 5683 5678 5673 5668 5663 5658 5652 5647 5640 5634 5628 5622
Wind_Speed
23 21 18 15 13 12 12 12 13 12 13 15 18 21 23 24 24 23 25 28 29 29 32 33 34 37 37 38 41 47 47 46 45 41 37 40 47 46 44 39 38 31 29 29 29 30 39 42 37 36 38 33 29 29
27 25 21 18 16 14 13 12 12 12 13 14 16 17 19 22 24 26 26 27 28 30 33 31 34 38 41 38 37 41 49 46 45 41 35 40 49 46 45 42 34 41 39 40 38 38 39 38 39 36 39 33 26 37
27 26 23 21 18 16 13 13 12 12 12 14 16 17 18 21 23 25 27 29 30 30 34 32 35 37 39 38 36 38 41 45 43 39 33 35 45 45 48 44 43 40 44 38 37 43 42 47 42 37 26 21 24 27
27 25 24 22 19 17 15 13 12 12 12 12 13 16 18 20 22 24 26 27 29 30 34 34 36 37 39 40 40 38 40 37 37 35 37 36 43 44 45 51 47 40 45 47 42 40 39 41 42 30 48 39 31 30
26 24 22 21 21 18 17 16 12 11 9 8 7 9 11 15 18 22 25 28 29 31 33 33 34 36 38 39 44 41 37 37 34 32 31 42 39 44 46 49 53 51 47 45 46 43 39 39 41 38 34 36 35 35
25 23 23 24 22 21 20 17 11 7 4 2 4 6 8 12 16 21 25 27 30 32 35 35 36 37 39 39 45 47 41 35 34 31 31 37 46 48 51 52 52 55 51 48 39 28 34 32 38 36 34 37 38 38
26 26 26 26 25 23 19 16 13 9 7 4 1 1 3 6 8 13 19 22 24 26 31 34 36 38 39 39 45 49 45 40 36 34 32 38 49 48 52 52 50 49 46 47 38 34 38 29 28 26 30 33 36 39
28 28 28 28 27 24 20 17 14 12 11 11 7 7 6 5 2 2 6 16 22 22 23 26 32 37 41 41 44 47 49 44 42 38 35 36 46 48 47 48 51 46 37 34 26 28 31 35 36 35 37 37 35 34
30 31 31 30 29 25 22 19 17 19 11 13 14 11 11 6 2 3 7 9 17 19 20 20 24 33 37 43 45 46 46 50 45 40 40 41 38 45 41 45 44 43 42 38 36 36 35 36 38 42 43 40 38 37
34 33 32 32 31 28 24 21 17 14 15 15 13 12 15 12 12 7 10 14 19 15 22 22 23 28 32 36 45 45 43 46 47 46 42 40 44 40 44 48 45 44 45 45 44 44 45 47 49 46 42 40 39 40
35 36 35 34 31 29 28 23 18 13 9 12 11 11 15 14 14 21 17 14 15 11 31 21 21 23 20 27 35 44 43 45 48 47 44 42 42 42 40 44 44 44 44 44 44 44 43 42 42 43 44 44 46 47
33 34 35 36 35 30 27 27 24 19 15 11 8 8 14 10 9 9 17 17 15 18 20 18 26 21 15 18 24 38 42 43 44 43 43 41 40 39 36 34 38 44 40 38 38 40 41 42 43 43 45 46 48 50
38 36 36 38 36 35 29 25 25 29 24 20 20 16 7 6 9 10 9 11 11 12 14 19 17 9 18 25 24 28 38 39 38 36 37 34 32 31 29 30 32 36 43 43 38 39 40 40 40 42 45 48 47 44
34 35 36 36 36 42 38 28 27 27 26 28 24 23 18 12 8 10 10 9 6 8 16 16 12 10 20 25 22 25 27 29 29 27 26 24 24 24 26 28 29 32 37 40 35 33 37 41 43 40 39 39 40 42
34 37 35 37 35 35 39 41 34 28 26 24 27 30 26 25 19 12 8 14 17 17 17 17 17 16 16 21 20 21 22 23 23 22 22 22 21 21 18 17 16 20 23 27 28 30 32 33 34 35 37 37 39 39
32 33 33 33 36 35 36 37 40 34 24 25 28 27 29 29 28 25 25 25 20 17 17 16 13 16 19 18 19 18 15 17 17 19 19 18 15 11 9 11 11 16 17 17 19 23 26 28 30 32 35 37 38 39
28 29 30 31 33 36 34 30 23 28 34 33 30 27 26 26 25 25 24 26 24 26 23 23 25 25 25 23 21 21 17 16 15 15 16 13 11 10 10 9 9 11 12 14 17 22 22 25 27 30 34 37 38 38
27 27 29 30 29 30 28 24 22 24 29 31 30 32 29 26 24 23 23 23 23 24 25 27 22 20 21 22 20 17 15 14 12 11 12 11 10 11 11 8 9 11 14 18 22 26 27 28 29 29 33 36 39 41
22 26 26 26 26 25 26 26 28 19 25 27 24 23 22 22 22 21 21 19 18 14 13 15 13 12 12 10 10 10 10 9 8 10 10 10 9 9 6 9 12 16 20 25 28 26 27 30 31 30 31 30 31 34
18 21 24 25 24 23 22 22 24 23 20 19 16 17 17 16 14 14 14 12 15 18 19 18 16 15 14 11 8 7 8 9 7 6 6 5 6 8 9 13 17 20 21 24 25 25 25 25 26 26 27 28 29 31
15 17 19 21 23 23 21 19 17 20 22 17 15 14 11 10 11 14 14 11 11 13 13 13 14 13 10 8 7 5 3 3 1 4 5 6 9 11 12 15 17 16 17 19 21 22 23 23 23 24 25 27 27 27
15 15 16 17 19 21 22 19 14 15 18 19 15 13 9 8 7 9 9 11 10 8 9 9 9 7 7 6 5 4 3 1 3 5 6 6 6 7 7 10 13 15 16 18 18 19 21 22 24 24 25 25 25 24
12 13 14 16 16 18 19 16 14 13 15 19 15 13 8 7 6 5 5 5 4 2 4 4 2 4 6 6 6 7 6 5 5 6 5 5 5 6 7 8 11 13 13 13 16 19 20 19 19 22 23 24 25 26
10 10 12 13 14 16 19 15 17 11 15 14 13 12 10 8 8 8 9 10 8 6 5 6 6 5 6 7 7 7 8 8 8 8 9 9 9 11 12 13 13 14 15 15 17 19 20 21 21 22 24 25 27 28
12 9 9 10 12 14 16 12 12 15 16 14 14 12 9 8 8 8 8 9 9 9 8 7 8 9 9 10 11 11 10 10 11 13 12 12 13 14 15 16 17 17 19 20 20 21 21 22 22 23 25 26 27 28
13 11 10 10 11 12 12 10 10 12 15 12 11 10 10 10 9 10 10 11 12 12 11 11 12 12 12 12 12 13 12 12 12 12 13 13 14 15 17 18 19 20 20 21 22 23 24 25 26 26 26 26 27 28
15 12 10 9 9 10 13 5 9 10 11 9 9 9 8 8 9 10 10 11 12 11 12 12 12 12 12 11 11 12 12 12 13 13 14 15 15 16 16 17 18 18 19 20 20 22 23 24 26 28 29 30 30 30
16 13 11 9 9 7 7 6 9 10 9 7 7 7 6 8 9 10 10 11 10 11 11 11 11 10 9 9 10 11 12 12 13 13 14 15 16 17 18 19 19 20 21 22 22 22 23 24 25 27 30 32 33 34
15 12 9 7 7 7 6 6 7 6 7 6 6 5 5 4 6 7 7 7 7 8 8 8 8 9 8 10 10 10 10 12 14 15 16 17 19 20 21 21 22 22 22 23 24 26 26 27 28 29 29 30 32 33
13 9 8 7 6 5 6 4 2 3 6 5 3 2 2 2 2 2 3 5 6 5 4 4 4 4 5 6 7 10 12 13 14 15 16 18 20 21 22 24 24 24 25 25 25 26 28 29 31 33 33 34 34 34
11 8 6 7 4 3 5 4 3 3 4 5 4 4 2 1 0 1 1 1 2 3 4 5 5 6 8 9 9 10 11 12 14 16 17 18 19 21 24 26 26 25 25 25 25 26 28 30 32 32 33 34 34 35
8 6 5 7 2 4 5 6 5 3 3 4 4 3 3 4 4 5 4 3 4 5 5 5 6 6 7 9 10 10 11 12 13 14 16 19 20 23 25 27 26 25 25 26 26 27 28 30 31 32 33 34 34 35
7 6 8 6 5 5 6 6 5 5 4 5 6 4 3 4 5 6 7 7 6 6 7 7 8 9 8 8 9 11 12 14 15 17 19 20 22 24 27 29 26 25 24 26 27 28 29 30 32 33 35 36 37 37
Wind_Direction
352 351 351 345 330 314 302 290 283 275 267 258 248 242 238 233 230 227 220 219 218 218 221 217 216 217 215 216 216 215 221 220 220 217 215 204 202 207 207 204 202 203 199 204 203 208 211 212 228 231 236 236 213 208
355 354 351 343 334 325 315 304 294 283 273 265 256 245 239 238 235 230 226 221 215 213 217 215 212 211 212 218 221 216 222 223 223 220 211 204 207 207 209 206 203 210 205 207 207 212 218 224 230 236 238 247 240 224
349 349 349 346 340 333 322 311 298 287 278 268 257 251 243 236 231 231 229 226 222 219 221 210 211 209 209 208 220 222 224 227 227 227 218 207 208 212 213 217 210 216 221 214 213 219 224 228 229 233 232 233 243 240
346 348 351 351 345 338 330 324 311 301 287 276 259 246 241 236 233 230 226 225 224 220 222 215 213 210 210 203 210 217 222 225 225 224 218 214 210 209 216 219 224 220 225 229 237 242 242 237 236 242 238 243 258 254
357 358 359 357 350 345 340 334 325 311 301 285 262 245 239 236 233 229 224 220 218 218 221 218 212 211 212 205 201 214 215 223 223 221 213 214 212 208 212 217 220 226 228 233 241 247 250 254 252 256 257 256 260 263
12 11 9 4 1 357 351 347 349 354 343 310 260 245 247 244 239 233 226 223 220 216 217 214 212 209 208 205 205 207 208 209 214 213 213 213 215 211 210 214 221 228 231 229 234 242 248 249 255 254 259 265 269 269
21 21 16 15 13 11 15 16 14 27 18 14 28 233 266 253 243 232 220 215 213 214 219 218 213 209 209 201 205 204 208 213 209 210 214 211 212 212 213 215 218 226 234 240 241 249 250 235 245 242 250 259 261 261
23 24 23 24 23 23 23 28 31 31 46 54 60 37 2 324 294 219 217 214 208 208 212 215 213 210 207 202 201 210 201 208 211 209 213 214 216 217 218 220 223 229 234 235 246 244 243 246 249 257 268 269 269 267
26 27 27 27 28 31 36 39 38 37 58 57 42 31 11 9 153 199 193 204 191 194 201 204 204 202 204 202 202 206 207 206 209 212 213 215 223 220 224 226 230 235 241 249 253 253 254 259 269 272 272 269 269 270
32 30 29 30 29 33 38 47 50 50 58 62 58 51 56 62 54 90 133 158 157 177 196 191 183 179 198 200 201 204 204 205 208 212 216 214 221 223 225 227 231 236 241 246 253 258 262 265 267 269 270 271 272 273
31 34 32 29 29 33 37 43 51 54 55 57 65 45 45 63 85 116 98 122 164 91 131 143 165 167 172 190 197 202 201 204 206 213 217 220 221 227 232 234 238 241 243 245 248 253 258 261 264 268 271 272 273 274
25 27 31 31 28 28 35 41 47 49 54 55 41 32 41 73 72 84 89 107 130 133 149 141 139 145 153 165 183 199 199 202 208 214 217 221 226 231 236 241 246 245 249 252 257 259 262 264 266 267 269 272 276 278
30 33 38 40 35 29 31 40 46 49 51 61 57 48 46 72 83 98 100 104 104 90 113 132 153 154 182 176 179 190 197 201 209 214 220 223 226 230 235 243 249 251 248 250 257 261 265 267 269 270 273 278 282 283
31 31 32 33 32 39 38 41 48 49 49 55 58 53 54 57 118 119 96 94 111 104 123 125 132 86 127 172 171 178 188 192 202 208 216 218 221 229 238 244 248 253 253 247 249 257 262 270 278 279 278 279 282 285
29 29 29 37 36 37 37 39 44 46 50 56 62 60 60 58 67 99 107 99 112 110 124 133 137 156 159 134 144 161 175 186 194 198 204 213 218 226 230 227 234 247 256 258 257 259 264 270 276 280 283 284 284 285
23 27 24 33 38 39 37 35 40 40 49 58 60 66 66 67 71 76 88 98 102 109 119 132 144 154 169 172 173 152 157 172 175 179 178 173 179 182 195 203 218 233 239 251 261 267 273 276 279 282 284 285 287 288
21 21 23 27 34 37 36 38 34 42 50 56 60 65 67 72 77 78 84 91 105 114 119 131 130 132 133 124 123 125 128 132 141 157 158 165 183 196 209 220 239 265 281 282 284 285 286 283 285 289 287 286 287 288
17 17 20 25 28 34 36 32 37 41 50 53 62 65 65 68 75 79 81 84 97 105 109 112 104 104 115 124 130 132 138 141 146 152 168 178 194 214 222 237 260 273 288 293 288 289 295 295 294 293 292 292 294 295
3 9 12 19 23 28 32 32 33 50 48 38 52 61 59 58 64 68 69 70 75 91 104 105 109 116 117 125 135 142 143 143 159 173 183 202 213 227 243 267 281 290 290 292 298 301 299 298 299 298 297 300 300 301
350 356 1 10 10 17 19 26 31 30 34 40 43 46 55 58 55 58 67 72 84 87 93 101 96 91 95 103 123 150 174 164 172 183 193 223 256 276 293 300 294 293 298 300 301 303 303 306 308 309 309 310 310 309
335 342 348 356 1 4 4 10 18 26 28 28 31 38 44 60 62 65 64 72 72 79 87 99 104 104 100 97 98 105 112 142 205 283 288 294 294 296 297 295 297 302 310 308 311 315 319 322 321 320 318 316 315 313
332 339 346 350 355 357 359 6 20 30 26 21 18 23 42 60 57 60 68 72 71 85 100 89 84 87 91 86 83 89 71 345 299 302 307 311 316 323 323 323 328 330 327 327 328 329 330 325 323 323 320 321 322 325
333 338 344 351 355 356 356 358 4 25 26 14 16 24 40 43 42 44 37 18 7 84 127 115 96 83 65 41 20 16 19 20 25 31 33 24 10 2 348 335 338 343 345 343 338 337 334 332 332 329 330 333 332 332
327 334 346 359 2 2 2 2 8 355 19 15 18 25 33 47 51 47 49 59 74 108 127 104 96 74 60 71 74 66 58 51 49 46 51 46 33 23 16 7 1 355 353 352 347 348 349 346 340 334 334 333 333 332
323 316 327 347 358 3 1 3 15 17 12 11 24 28 33 44 52 53 54 57 68 88 93 78 74 75 74 71 71 67 61 57 49 42 36 31 25 20 18 14 10 7 359 355 354 351 348 346 348 346 343 340 340 338
332 312 303 315 331 350 353 358 357 356 350 8 24 34 42 44 48 52 56 66 73 76 79 79 77 77 77 72 65 62 59 53 45 38 31 24 22 15 9 5 1 0 357 355 355 353 351 351 348 349 348 344 343 342
336 325 308 308 316 336 353 357 359 0 8 17 33 43 44 57 71 75 73 73 75 79 79 78 79 75 70 65 62 57 51 45 41 34 26 20 16 12 7 1 358 357 352 349 350 351 350 348 346 345 345 344 344 346
339 321 306 299 307 325 344 336 352 358 6 24 48 61 69 81 84 83 81 79 78 79 75 71 67 62 58 57 52 44 38 34 30 24 19 14 10 6 3 0 358 356 356 352 350 350 350 350 349 348 346 346 346 346
323 315 298 289 293 303 293 305 312 344 2 20 37 50 69 69 75 71 73 78 79 67 52 42 46 41 39 39 36 37 33 28 22 18 15 10 6 2 359 356 353 351 352 353 353 353 353 350 350 351 351 350 349 350
314 305 279 270 283 304 254 254 293 347 358 11 26 18 75 95 86 86 72 53 44 46 51 57 56 36 30 39 27 18 21 21 19 15 11 8 5 0 357 355 353 351 351 351 354 352 350 350 350 350 350 351 350 349
309 294 274 272 276 196 218 239 263 302 346 356 344 349 324 252 246 298 314 331 324 335 352 355 14 18 9 10 16 15 9 8 6 5 4 1 360 359 357 356 355 353 351 352 353 349 350 350 350 350 349 347 346 345
317 296 292 289 241 254 245 257 257 260 295 332 329 318 332 291 272 265 264 271 289 299 312 323 332 349 349 346 346 348 351 351 353 352 352 354 358 359 357 356 354 352 351 351 351 351 350 349 348 347 346 345 344 343
293 274 275 290 312 243 228 242 253 256 271 307 318 310 298 309 283 268 270 271 273 283 299 309 315 313 317 324 325 328 331 335 341 346 348 349 352 352 353 353 351 351 351 350 349 349 347 346 346 346 346 346 345 342